Location: Champ de Mars
(48.8556°N, 2.2986°E)
Time: 06:36:26
(UTC+01:00)

ISS - Visible Passes

Search period start: 15 November 2025 00:00
Search period end: 25 November 2025 00:00
Orbit: 415 x 420 km, 51.6° (Epoch: 14 November)

Date Brightness Start Highest point End Pass type
(mag) Time Alt. Az. Time Alt. Az. Time Alt. Az.
15 Nov -2.1 18:12:09 10° SSW 18:14:46 21° SE 18:16:32 15° E visible
15 Nov -1.6 19:47:52 10° WSW 19:49:28 26° WSW 19:49:28 26° WSW visible
16 Nov -3.8 18:59:48 10° WSW 19:03:08 66° SSE 19:03:23 63° ESE visible
17 Nov -3.2 18:11:51 10° SW 18:15:03 45° SSE 18:17:13 18° E visible
17 Nov -1.6 19:48:29 10° W 19:50:08 26° W 19:50:08 26° W visible
18 Nov -3.8 19:00:15 10° WSW 19:03:36 72° NNW 19:03:55 65° NNE visible
19 Nov -3.8 18:12:03 10° WSW 18:15:24 88° SSE 18:17:38 20° ENE visible
19 Nov -1.4 19:49:04 10° WNW 19:50:33 23° WNW 19:50:33 23° WNW visible
20 Nov -3.5 19:00:46 10° W 19:04:04 53° N 19:04:14 52° N visible
21 Nov -3.5 18:12:27 10° W 18:15:46 60° NNW 18:17:53 20° ENE visible
21 Nov -1.3 19:49:30 10° WNW 19:50:48 21° WNW 19:50:48 21° WNW visible
22 Nov -3.4 19:01:12 10° WNW 19:04:26 51° N 19:04:26 51° N visible
23 Nov -3.4 18:12:49 10° W 18:16:07 50° N 18:18:04 21° ENE visible
23 Nov -1.2 19:49:44 10° WNW 19:50:58 21° WNW 19:50:58 21° WNW visible
24 Nov -3.7 19:01:25 10° WNW 19:04:37 62° N 19:04:37 62° N visible
